Weather observations for the past three days for
Ithaca Tompkins International Airport
Metric (Imperial)
Date Time (edt) Wind (kph) Vis. (km) Weather Sky Cond. Temperature (ºC) Relative Humidity Wind Chill (°C) Heat Index (°C) Pressure Precipitation (cm)
Air Dwpt 6 hour altimeter (cm) sea level (mb) 1 hr 3 hr 6 hr
Max. Min.
05 02:56 SE 9 16.09 Mostly Cloudy BKN065 15 7.8 62% 75.41 1005.0
05 01:56 S 15 16.09 A Few Clouds FEW110 16.1 6.7 18.9 14.4 54% 75.41 1004.9
05 00:56 S 15 16.09 Overcast FEW075 BKN100 OVC140 15.6 6.7 56% 75.44 1005.4
04 23:56 S 13 16.09 A Few Clouds FEW140 15 6.1 56% 75.44 1005.3
04 22:56 S 17 16.09 Fair CLR 16.1 5.6 50% 75.41 1005.2
04 20:56 S 13 16.09 A Few Clouds FEW100 17.8 3.3 38% 75.41 1005.1
04 19:56 S 11 16.09 A Few Clouds FEW080 18.9 2.2 22.8 18.9 33% 75.36 1004.6
04 17:56 SW 19 16.09 A Few Clouds FEW095 22.2 2.2 27% 75.36 1004.3
04 16:56 SW 22 G 39 16.09 Mostly Cloudy BKN090 22.8 2.8 27% 75.36 1004.7
04 15:56 SW 22 G 33 16.09 Mostly Cloudy BKN085 22.8 3.9 29% 75.41 1005.3
04 14:56 SW 24 G 43 16.09 Mostly Cloudy BKN080 21.7 3.9 31% 75.49 1006.3
04 13:56 SW 17 G 37 16.09 Mostly Cloudy BKN075 21.1 6.1 21.1 10 38% 75.51 1006.5
04 12:56 SW 28 G 41 16.09 Partly Cloudy SCT075 20 5.6 39% 75.54 1007.0
04 11:56 S 26 G 37 16.09 Fair CLR 17.8 4.4 41% 75.59 1007.7
04 10:56 S 19 16.09 A Few Clouds FEW085 15.6 2.8 42% 75.64 1008.2
04 09:56 S 17 16.09 A Few Clouds FEW090 13.9 2.2 45% 75.67 1008.9
04 08:56 S 22 16.09 A Few Clouds FEW065 12.2 1.1 47% 75.69 1009.4
04 07:56 S 13 G 28 16.09 Mostly Cloudy BKN090 10 0.6 10 5 52% 8 75.74 1009.8
04 05:56 S 13 16.09 Fair CLR 8.9 -0.6 52% 7 75.72 1009.7
04 04:56 S 9 16.09 Mostly Cloudy BKN140 7.8 -0.6 56% 6 75.72 1009.9
04 03:56 SW 7 16.09 Overcast BKN130 OVC150 7.2 0 61% 6 75.74 1009.9
04 02:56 Vrbl 7 16.09 Overcast OVC120 6.1 0 65% 5 75.74 1010.1
04 01:56 S 9 16.09 A Few Clouds FEW090 8.3 -1.1 12.2 7.2 52% 7 75.77 1010.5
04 00:56 S 11 16.09 Mostly Cloudy BKN090 8.3 -0.6 54% 7 75.77 1010.5
03 23:56 SW 6 16.09 Overcast OVC080 8.9 2.2 63% 75.77 1010.6
03 22:56 Calm 16.09 Overcast OVC075 9.4 1.1 56% 75.79 1010.9
03 21:56 W 9 16.09 Overcast OVC070 11.7 -1.1 41% 75.82 1011.0
03 20:56 W 19 G 41 16.09 Overcast OVC070 12.2 -1.7 38% 75.79 1011.1
03 19:56 W 15 G 31 16.09 Mostly Cloudy BKN075 11.7 -1.1 12.8 11.1 41% 75.77 1010.7
03 18:56 W 7 16.09 Mostly Cloudy BKN080 12.2 -1.1 40% 75.72 1010.1
03 17:56 W 11 16.09 Mostly Cloudy BKN085 12.2 -1.7 38% 75.74 1010.3
03 16:56 NW 20 16.09 Mostly Cloudy BKN085 12.2 -1.7 38% 75.77 1010.5
03 15:56 NW 20 G 41 16.09 Overcast SCT070 OVC095 12.2 -1.7 38% 75.79 1011.0
03 14:56 NW 19 G 37 16.09 Overcast OVC080 11.7 -3.3 35% 75.84 1011.5
03 13:56 W 15 16.09 Mostly Cloudy BKN055 BKN080 11.1 -2.8 11.1 3.9 38% 75.87 1011.9
03 12:56 N 17 G 33 16.09 Partly Cloudy SCT060 10 -2.8 41% 8 75.92 1012.6
03 11:56 NW 19 G 37 16.09 Fair CLR 8.9 -3.3 42% 6 75.97 1013.6
03 10:56 NW 20 G 35 16.09 Fair CLR 7.8 -3.9 44% 5 76.02 1014.2
03 09:56 NW 30 G 41 16.09 Fair CLR 6.7 -3.9 47% 3 76.02 1014.4
03 08:56 NW 20 G 35 16.09 Fair CLR 5.6 -4.4 49% 2 76.02 1014.4
03 07:56 NW 13 16.09 Fair CLR 3.9 -1.7 3.9 0.6 67% 1 76.02 1014.3
03 06:56 Calm 16.09 Partly Cloudy SCT055 1.7 -1.1 82% 76 1013.9
03 05:56 NW 6 16.09 Partly Cloudy SCT055 1.7 -1.1 82% 75.97 1013.6
03 04:56 NW 9 16.09 Overcast BKN050 OVC080 2.8 -0.6 79% 1 75.97 1013.5
03 03:56 NW 9 16.09 Overcast OVC080 2.8 -0.6 79% 1 75.97 1013.5
03 02:56 NW 9 16.09 Overcast OVC080 2.8 -0.6 79% 1 75.97 1013.5
03 01:56 NW 7 16.09 Overcast OVC080 2.8 -0.6 5 2.8 79% 1 76 1013.7
03 00:56 NW 7 16.09 Overcast OVC075 3.3 -0.6 76% 2 76.02 1014.4
02 22:56 NW 9 16.09 Overcast OVC080 3.3 -0.6 76% 1 76.05 1014.7
02 21:56 NW 11 16.09 Overcast OVC080 3.3 -0.6 76% 1 76.07 1015.0
02 20:56 NW 7 16.09 Overcast OVC080 4.4 -0.6 70% 3 76.05 1014.8
02 19:56 NW 11 16.09 Overcast OVC080 5 -1.1 7.8 5 65% 3 76.02 1014.5
02 18:56 NW 15 16.09 Overcast OVC080 5.6 -1.1 62% 3 76 1013.9
02 17:56 NW 17 16.09 Overcast OVC070 6.7 -3.3 49% 4 75.97 1013.8
02 16:56 NW 15 16.09 Overcast OVC070 7.2 -2.8 49% 5 75.95 1013.3
02 15:56 NW 17 16.09 Mostly Cloudy BKN070 BKN080 7.8 -3.3 46% 5 75.97 1013.5
02 14:56 W 13 16.09 Overcast OVC070 7.8 -2.8 47% 6 76 1014.0
02 13:56 W 13 16.09 Overcast OVC055 7.2 -2.8 7.8 2.2 49% 5 76.02 1014.0
02 12:56 NW 17 16.09 Mostly Cloudy BKN060 6.7 -3.3 49% 4 76.02 1014.2
02 11:56 W 15 G 28 16.09 Mostly Cloudy BKN047 6.7 -4.4 45% 4 76.05 1014.7
02 10:56 NW 13 16.09 Mostly Cloudy BKN030 6.1 -1.7 58% 4 76.05 1014.5
02 09:56 NW 11 G 28 16.09 Partly Cloudy SCT022 5 0 70% 3 76.07 1014.9
02 08:56 NW 15 16.09 Partly Cloudy SCT016 3.9 1.1 82% 1 76.1 1015.1
02 07:56 NW 7 16.09 Mostly Cloudy BKN016 2.2 0 3.3 1.7 86% 0 76.1 1015.4
02 06:56 NW 11 16.09 A Few Clouds FEW020 2.2 0.6 89% -1 76.05 1014.6
02 05:56 NW 11 9.66 Fog/Mist BKN026 2.2 2.2 100% -1 76.02 1014.0
02 04:56 W 6 12.87 Overcast BKN022 OVC095 2.8 2.8 100% 75.97 1013.4
02 03:56 Calm 16.09 Overcast FEW020 OVC080 3.3 3.3 100% 75.95 1013.0
Date Time (edt) Wind (kph) Vis. (km) Weather Sky Cond. Air Dwpt Max. Min. Relative Humidity Wind Chill (°C) Heat Index (°C) altimeter (cm) sea level (mb) 1 hr 3 hr 6 hr
6 hour
Temperature (ºC) Pressure Precipitation (cm)